<?xml version="1.0"?>
<gpx xmlns="http://www.topografix.com/GPX/1/1" xmlns:xsi="http://www.w3.org/2001/XMLSchema-instance" version="1.1" creator="GPX RubyGem 1.0.0 -- http://dougfales.github.io/gpx/" xsi:schemaLocation="http://www.topografix.com/GPX/1/1 http://www.topografix.com/GPX/1/1/gpx.xsd">
  <metadata>
    <name/>
    <time>2026-05-08T01:05:49+00:00</time>
    <bound minlat="90.0" minlon="180.0" maxlat="-90.0" maxlon="-180.0"/>
  </metadata>
  <trk>
    <name/>
    <trkseg>
      <trkpt lat="45.811772" lon="7.674801">
        <time>1970-01-01T00:00:00+00:00</time>
        <ele>1922.0</ele>
      </trkpt>
      <trkpt lat="45.811705" lon="7.674766">
        <time>1970-01-01T00:00:00+00:00</time>
        <ele>1923.0</ele>
      </trkpt>
      <trkpt lat="45.811412" lon="7.674333">
        <time>1970-01-01T00:00:00+00:00</time>
        <ele>1931.0</ele>
      </trkpt>
      <trkpt lat="45.811103" lon="7.674496">
        <time>1970-01-01T00:00:00+00:00</time>
        <ele>1922.0</ele>
      </trkpt>
      <trkpt lat="45.810955" lon="7.674606">
        <time>1970-01-01T00:00:00+00:00</time>
        <ele>1916.0</ele>
      </trkpt>
      <trkpt lat="45.810891" lon="7.674353">
        <time>1970-01-01T00:00:00+00:00</time>
        <ele>1919.0</ele>
      </trkpt>
      <trkpt lat="45.810881" lon="7.674189">
        <time>1970-01-01T00:00:00+00:00</time>
        <ele>1921.0</ele>
      </trkpt>
      <trkpt lat="45.810886" lon="7.673751">
        <time>1970-01-01T00:00:00+00:00</time>
        <ele>1927.0</ele>
      </trkpt>
      <trkpt lat="45.810863" lon="7.673474">
        <time>1970-01-01T00:00:00+00:00</time>
        <ele>1932.0</ele>
      </trkpt>
      <trkpt lat="45.810942" lon="7.673236">
        <time>1970-01-01T00:00:00+00:00</time>
        <ele>1938.0</ele>
      </trkpt>
      <trkpt lat="45.811093" lon="7.672919">
        <time>1970-01-01T00:00:00+00:00</time>
        <ele>1945.0</ele>
      </trkpt>
      <trkpt lat="45.811151" lon="7.672577">
        <time>1970-01-01T00:00:00+00:00</time>
        <ele>1954.0</ele>
      </trkpt>
      <trkpt lat="45.811163" lon="7.672387">
        <time>1970-01-01T00:00:00+00:00</time>
        <ele>1956.0</ele>
      </trkpt>
      <trkpt lat="45.811224" lon="7.672174">
        <time>1970-01-01T00:00:00+00:00</time>
        <ele>1960.0</ele>
      </trkpt>
      <trkpt lat="45.811286" lon="7.672151">
        <time>1970-01-01T00:00:00+00:00</time>
        <ele>1960.0</ele>
      </trkpt>
      <trkpt lat="45.811338" lon="7.672013">
        <time>1970-01-01T00:00:00+00:00</time>
        <ele>1963.0</ele>
      </trkpt>
      <trkpt lat="45.811422" lon="7.671913">
        <time>1970-01-01T00:00:00+00:00</time>
        <ele>1965.0</ele>
      </trkpt>
      <trkpt lat="45.811498" lon="7.671768">
        <time>1970-01-01T00:00:00+00:00</time>
        <ele>1967.0</ele>
      </trkpt>
      <trkpt lat="45.811486" lon="7.671575">
        <time>1970-01-01T00:00:00+00:00</time>
        <ele>1969.0</ele>
      </trkpt>
      <trkpt lat="45.811536" lon="7.671496">
        <time>1970-01-01T00:00:00+00:00</time>
        <ele>1971.0</ele>
      </trkpt>
      <trkpt lat="45.811627" lon="7.671417">
        <time>1970-01-01T00:00:00+00:00</time>
        <ele>1973.0</ele>
      </trkpt>
      <trkpt lat="45.81175" lon="7.67127">
        <time>1970-01-01T00:00:00+00:00</time>
        <ele>1976.0</ele>
      </trkpt>
      <trkpt lat="45.811772" lon="7.671194">
        <time>1970-01-01T00:00:00+00:00</time>
        <ele>1977.0</ele>
      </trkpt>
      <trkpt lat="45.811763" lon="7.671124">
        <time>1970-01-01T00:00:00+00:00</time>
        <ele>1978.0</ele>
      </trkpt>
      <trkpt lat="45.811715" lon="7.670986">
        <time>1970-01-01T00:00:00+00:00</time>
        <ele>1979.0</ele>
      </trkpt>
      <trkpt lat="45.811643" lon="7.670863">
        <time>1970-01-01T00:00:00+00:00</time>
        <ele>1980.0</ele>
      </trkpt>
      <trkpt lat="45.811612" lon="7.670584">
        <time>1970-01-01T00:00:00+00:00</time>
        <ele>1983.0</ele>
      </trkpt>
      <trkpt lat="45.811528" lon="7.670199">
        <time>1970-01-01T00:00:00+00:00</time>
        <ele>1986.0</ele>
      </trkpt>
      <trkpt lat="45.81147" lon="7.670037">
        <time>1970-01-01T00:00:00+00:00</time>
        <ele>1987.0</ele>
      </trkpt>
      <trkpt lat="45.811415" lon="7.669943">
        <time>1970-01-01T00:00:00+00:00</time>
        <ele>1988.0</ele>
      </trkpt>
      <trkpt lat="45.81136" lon="7.669901">
        <time>1970-01-01T00:00:00+00:00</time>
        <ele>1988.0</ele>
      </trkpt>
      <trkpt lat="45.81125" lon="7.6695">
        <time>1970-01-01T00:00:00+00:00</time>
        <ele>1994.0</ele>
      </trkpt>
      <trkpt lat="45.811179" lon="7.669379">
        <time>1970-01-01T00:00:00+00:00</time>
        <ele>1996.0</ele>
      </trkpt>
      <trkpt lat="45.811095" lon="7.669278">
        <time>1970-01-01T00:00:00+00:00</time>
        <ele>1997.0</ele>
      </trkpt>
      <trkpt lat="45.810959" lon="7.668817">
        <time>1970-01-01T00:00:00+00:00</time>
        <ele>2006.0</ele>
      </trkpt>
      <trkpt lat="45.810801" lon="7.668511">
        <time>1970-01-01T00:00:00+00:00</time>
        <ele>2007.0</ele>
      </trkpt>
      <trkpt lat="45.810711" lon="7.668269">
        <time>1970-01-01T00:00:00+00:00</time>
        <ele>2011.0</ele>
      </trkpt>
      <trkpt lat="45.810667" lon="7.668008">
        <time>1970-01-01T00:00:00+00:00</time>
        <ele>2017.0</ele>
      </trkpt>
      <trkpt lat="45.810524" lon="7.667737">
        <time>1970-01-01T00:00:00+00:00</time>
        <ele>2022.0</ele>
      </trkpt>
      <trkpt lat="45.810509" lon="7.667544">
        <time>1970-01-01T00:00:00+00:00</time>
        <ele>2029.0</ele>
      </trkpt>
      <trkpt lat="45.810455" lon="7.667446">
        <time>1970-01-01T00:00:00+00:00</time>
        <ele>2032.0</ele>
      </trkpt>
      <trkpt lat="45.8104" lon="7.667204">
        <time>1970-01-01T00:00:00+00:00</time>
        <ele>2040.0</ele>
      </trkpt>
      <trkpt lat="45.810342" lon="7.667152">
        <time>1970-01-01T00:00:00+00:00</time>
        <ele>2041.0</ele>
      </trkpt>
      <trkpt lat="45.810277" lon="7.667145">
        <time>1970-01-01T00:00:00+00:00</time>
        <ele>2040.0</ele>
      </trkpt>
      <trkpt lat="45.810055" lon="7.667046">
        <time>1970-01-01T00:00:00+00:00</time>
        <ele>2039.0</ele>
      </trkpt>
      <trkpt lat="45.809885" lon="7.666689">
        <time>1970-01-01T00:00:00+00:00</time>
        <ele>2051.0</ele>
      </trkpt>
      <trkpt lat="45.809789" lon="7.666629">
        <time>1970-01-01T00:00:00+00:00</time>
        <ele>2053.0</ele>
      </trkpt>
      <trkpt lat="45.809754" lon="7.666649">
        <time>1970-01-01T00:00:00+00:00</time>
        <ele>2052.0</ele>
      </trkpt>
      <trkpt lat="45.809713" lon="7.666627">
        <time>1970-01-01T00:00:00+00:00</time>
        <ele>2052.0</ele>
      </trkpt>
      <trkpt lat="45.809536" lon="7.666255">
        <time>1970-01-01T00:00:00+00:00</time>
        <ele>2064.0</ele>
      </trkpt>
      <trkpt lat="45.809453" lon="7.666028">
        <time>1970-01-01T00:00:00+00:00</time>
        <ele>2068.0</ele>
      </trkpt>
      <trkpt lat="45.809237" lon="7.665611">
        <time>1970-01-01T00:00:00+00:00</time>
        <ele>2071.0</ele>
      </trkpt>
      <trkpt lat="45.809194" lon="7.665488">
        <time>1970-01-01T00:00:00+00:00</time>
        <ele>2072.0</ele>
      </trkpt>
      <trkpt lat="45.809185" lon="7.66532">
        <time>1970-01-01T00:00:00+00:00</time>
        <ele>2074.0</ele>
      </trkpt>
      <trkpt lat="45.809149" lon="7.665125">
        <time>1970-01-01T00:00:00+00:00</time>
        <ele>2076.0</ele>
      </trkpt>
      <trkpt lat="45.809111" lon="7.665069">
        <time>1970-01-01T00:00:00+00:00</time>
        <ele>2077.0</ele>
      </trkpt>
      <trkpt lat="45.809022" lon="7.664842">
        <time>1970-01-01T00:00:00+00:00</time>
        <ele>2079.0</ele>
      </trkpt>
      <trkpt lat="45.808898" lon="7.66479">
        <time>1970-01-01T00:00:00+00:00</time>
        <ele>2078.0</ele>
      </trkpt>
      <trkpt lat="45.808848" lon="7.664676">
        <time>1970-01-01T00:00:00+00:00</time>
        <ele>2079.0</ele>
      </trkpt>
      <trkpt lat="45.808831" lon="7.664238">
        <time>1970-01-01T00:00:00+00:00</time>
        <ele>2087.0</ele>
      </trkpt>
      <trkpt lat="45.808854" lon="7.664082">
        <time>1970-01-01T00:00:00+00:00</time>
        <ele>2091.0</ele>
      </trkpt>
      <trkpt lat="45.80883" lon="7.663932">
        <time>1970-01-01T00:00:00+00:00</time>
        <ele>2094.0</ele>
      </trkpt>
      <trkpt lat="45.80879" lon="7.663843">
        <time>1970-01-01T00:00:00+00:00</time>
        <ele>2096.0</ele>
      </trkpt>
      <trkpt lat="45.808637" lon="7.663695">
        <time>1970-01-01T00:00:00+00:00</time>
        <ele>2101.0</ele>
      </trkpt>
      <trkpt lat="45.808429" lon="7.66353">
        <time>1970-01-01T00:00:00+00:00</time>
        <ele>2108.0</ele>
      </trkpt>
      <trkpt lat="45.808338" lon="7.663532">
        <time>1970-01-01T00:00:00+00:00</time>
        <ele>2108.0</ele>
      </trkpt>
      <trkpt lat="45.808261" lon="7.663503">
        <time>1970-01-01T00:00:00+00:00</time>
        <ele>2109.0</ele>
      </trkpt>
      <trkpt lat="45.808013" lon="7.663118">
        <time>1970-01-01T00:00:00+00:00</time>
        <ele>2123.0</ele>
      </trkpt>
      <trkpt lat="45.807991" lon="7.662992">
        <time>1970-01-01T00:00:00+00:00</time>
        <ele>2129.0</ele>
      </trkpt>
      <trkpt lat="45.807996" lon="7.662837">
        <time>1970-01-01T00:00:00+00:00</time>
        <ele>2136.0</ele>
      </trkpt>
      <trkpt lat="45.807958" lon="7.662753">
        <time>1970-01-01T00:00:00+00:00</time>
        <ele>2140.0</ele>
      </trkpt>
      <trkpt lat="45.807963" lon="7.662625">
        <time>1970-01-01T00:00:00+00:00</time>
        <ele>2146.0</ele>
      </trkpt>
      <trkpt lat="45.807991" lon="7.662475">
        <time>1970-01-01T00:00:00+00:00</time>
        <ele>2152.0</ele>
      </trkpt>
      <trkpt lat="45.808089" lon="7.66224">
        <time>1970-01-01T00:00:00+00:00</time>
        <ele>2162.0</ele>
      </trkpt>
      <trkpt lat="45.808221" lon="7.662102">
        <time>1970-01-01T00:00:00+00:00</time>
        <ele>2173.0</ele>
      </trkpt>
      <trkpt lat="45.808316" lon="7.661959">
        <time>1970-01-01T00:00:00+00:00</time>
        <ele>2184.0</ele>
      </trkpt>
      <trkpt lat="45.808479" lon="7.662001">
        <time>1970-01-01T00:00:00+00:00</time>
        <ele>2183.0</ele>
      </trkpt>
      <trkpt lat="45.808579" lon="7.661967">
        <time>1970-01-01T00:00:00+00:00</time>
        <ele>2186.0</ele>
      </trkpt>
      <trkpt lat="45.808653" lon="7.661974">
        <time>1970-01-01T00:00:00+00:00</time>
        <ele>2186.0</ele>
      </trkpt>
      <trkpt lat="45.808957" lon="7.661885">
        <time>1970-01-01T00:00:00+00:00</time>
        <ele>2196.0</ele>
      </trkpt>
      <trkpt lat="45.809" lon="7.661935">
        <time>1970-01-01T00:00:00+00:00</time>
        <ele>2193.0</ele>
      </trkpt>
      <trkpt lat="45.80933" lon="7.661799">
        <time>1970-01-01T00:00:00+00:00</time>
        <ele>2204.0</ele>
      </trkpt>
      <trkpt lat="45.809404" lon="7.661784">
        <time>1970-01-01T00:00:00+00:00</time>
        <ele>2205.0</ele>
      </trkpt>
      <trkpt lat="45.809479" lon="7.661799">
        <time>1970-01-01T00:00:00+00:00</time>
        <ele>2204.0</ele>
      </trkpt>
      <trkpt lat="45.809565" lon="7.661772">
        <time>1970-01-01T00:00:00+00:00</time>
        <ele>2206.0</ele>
      </trkpt>
      <trkpt lat="45.809658" lon="7.661703">
        <time>1970-01-01T00:00:00+00:00</time>
        <ele>2208.0</ele>
      </trkpt>
      <trkpt lat="45.809684" lon="7.661631">
        <time>1970-01-01T00:00:00+00:00</time>
        <ele>2211.0</ele>
      </trkpt>
      <trkpt lat="45.80968" lon="7.661565">
        <time>1970-01-01T00:00:00+00:00</time>
        <ele>2212.0</ele>
      </trkpt>
      <trkpt lat="45.809706" lon="7.661478">
        <time>1970-01-01T00:00:00+00:00</time>
        <ele>2216.0</ele>
      </trkpt>
      <trkpt lat="45.809768" lon="7.661404">
        <time>1970-01-01T00:00:00+00:00</time>
        <ele>2221.0</ele>
      </trkpt>
      <trkpt lat="45.809845" lon="7.661229">
        <time>1970-01-01T00:00:00+00:00</time>
        <ele>2233.0</ele>
      </trkpt>
      <trkpt lat="45.809938" lon="7.661153">
        <time>1970-01-01T00:00:00+00:00</time>
        <ele>2237.0</ele>
      </trkpt>
      <trkpt lat="45.810113" lon="7.661113">
        <time>1970-01-01T00:00:00+00:00</time>
        <ele>2240.0</ele>
      </trkpt>
      <trkpt lat="45.810136" lon="7.661047">
        <time>1970-01-01T00:00:00+00:00</time>
        <ele>2244.0</ele>
      </trkpt>
      <trkpt lat="45.810309" lon="7.660827">
        <time>1970-01-01T00:00:00+00:00</time>
        <ele>2257.0</ele>
      </trkpt>
      <trkpt lat="45.810495" lon="7.660776">
        <time>1970-01-01T00:00:00+00:00</time>
        <ele>2262.0</ele>
      </trkpt>
      <trkpt lat="45.810533" lon="7.660684">
        <time>1970-01-01T00:00:00+00:00</time>
        <ele>2266.0</ele>
      </trkpt>
      <trkpt lat="45.810612" lon="7.660684">
        <time>1970-01-01T00:00:00+00:00</time>
        <ele>2267.0</ele>
      </trkpt>
      <trkpt lat="45.810801" lon="7.660889">
        <time>1970-01-01T00:00:00+00:00</time>
        <ele>2266.0</ele>
      </trkpt>
      <trkpt lat="45.810871" lon="7.660938">
        <time>1970-01-01T00:00:00+00:00</time>
        <ele>2267.0</ele>
      </trkpt>
      <trkpt lat="45.810981" lon="7.660963">
        <time>1970-01-01T00:00:00+00:00</time>
        <ele>2271.0</ele>
      </trkpt>
      <trkpt lat="45.811165" lon="7.661232">
        <time>1970-01-01T00:00:00+00:00</time>
        <ele>2271.0</ele>
      </trkpt>
      <trkpt lat="45.811241" lon="7.66137">
        <time>1970-01-01T00:00:00+00:00</time>
        <ele>2270.0</ele>
      </trkpt>
      <trkpt lat="45.811401" lon="7.661385">
        <time>1970-01-01T00:00:00+00:00</time>
        <ele>2273.0</ele>
      </trkpt>
      <trkpt lat="45.811442" lon="7.661424">
        <time>1970-01-01T00:00:00+00:00</time>
        <ele>2273.0</ele>
      </trkpt>
      <trkpt lat="45.811727" lon="7.661456">
        <time>1970-01-01T00:00:00+00:00</time>
        <ele>2280.0</ele>
      </trkpt>
      <trkpt lat="45.811781" lon="7.661434">
        <time>1970-01-01T00:00:00+00:00</time>
        <ele>2282.0</ele>
      </trkpt>
      <trkpt lat="45.811966" lon="7.661493">
        <time>1970-01-01T00:00:00+00:00</time>
        <ele>2284.0</ele>
      </trkpt>
      <trkpt lat="45.812007" lon="7.66154">
        <time>1970-01-01T00:00:00+00:00</time>
        <ele>2284.0</ele>
      </trkpt>
      <trkpt lat="45.812032" lon="7.661614">
        <time>1970-01-01T00:00:00+00:00</time>
        <ele>2284.0</ele>
      </trkpt>
      <trkpt lat="45.812124" lon="7.661624">
        <time>1970-01-01T00:00:00+00:00</time>
        <ele>2287.0</ele>
      </trkpt>
      <trkpt lat="45.812171" lon="7.661666">
        <time>1970-01-01T00:00:00+00:00</time>
        <ele>2288.0</ele>
      </trkpt>
      <trkpt lat="45.812298" lon="7.661639">
        <time>1970-01-01T00:00:00+00:00</time>
        <ele>2291.0</ele>
      </trkpt>
      <trkpt lat="45.812356" lon="7.661577">
        <time>1970-01-01T00:00:00+00:00</time>
        <ele>2293.0</ele>
      </trkpt>
      <trkpt lat="45.812592" lon="7.661592">
        <time>1970-01-01T00:00:00+00:00</time>
        <ele>2297.0</ele>
      </trkpt>
      <trkpt lat="45.812662" lon="7.661634">
        <time>1970-01-01T00:00:00+00:00</time>
        <ele>2299.0</ele>
      </trkpt>
      <trkpt lat="45.812702" lon="7.661562">
        <time>1970-01-01T00:00:00+00:00</time>
        <ele>2301.0</ele>
      </trkpt>
      <trkpt lat="45.812858" lon="7.661575">
        <time>1970-01-01T00:00:00+00:00</time>
        <ele>2305.0</ele>
      </trkpt>
      <trkpt lat="45.813073" lon="7.66133">
        <time>1970-01-01T00:00:00+00:00</time>
        <ele>2315.0</ele>
      </trkpt>
      <trkpt lat="45.813205" lon="7.661313">
        <time>1970-01-01T00:00:00+00:00</time>
        <ele>2318.0</ele>
      </trkpt>
      <trkpt lat="45.813247" lon="7.661281">
        <time>1970-01-01T00:00:00+00:00</time>
        <ele>2320.0</ele>
      </trkpt>
      <trkpt lat="45.813319" lon="7.66134">
        <time>1970-01-01T00:00:00+00:00</time>
        <ele>2321.0</ele>
      </trkpt>
      <trkpt lat="45.813446" lon="7.661592">
        <time>1970-01-01T00:00:00+00:00</time>
        <ele>2320.0</ele>
      </trkpt>
      <trkpt lat="45.813499" lon="7.661666">
        <time>1970-01-01T00:00:00+00:00</time>
        <ele>2321.0</ele>
      </trkpt>
      <trkpt lat="45.813544" lon="7.661607">
        <time>1970-01-01T00:00:00+00:00</time>
        <ele>2324.0</ele>
      </trkpt>
      <trkpt lat="45.813637" lon="7.661407">
        <time>1970-01-01T00:00:00+00:00</time>
        <ele>2331.0</ele>
      </trkpt>
      <trkpt lat="45.813757" lon="7.661271">
        <time>1970-01-01T00:00:00+00:00</time>
        <ele>2338.0</ele>
      </trkpt>
      <trkpt lat="45.814101" lon="7.661165">
        <time>1970-01-01T00:00:00+00:00</time>
        <ele>2345.0</ele>
      </trkpt>
      <trkpt lat="45.81419" lon="7.661116">
        <time>1970-01-01T00:00:00+00:00</time>
        <ele>2347.0</ele>
      </trkpt>
      <trkpt lat="45.814324" lon="7.661005">
        <time>1970-01-01T00:00:00+00:00</time>
        <ele>2352.0</ele>
      </trkpt>
      <trkpt lat="45.814443" lon="7.660867">
        <time>1970-01-01T00:00:00+00:00</time>
        <ele>2357.0</ele>
      </trkpt>
      <trkpt lat="45.814484" lon="7.660815">
        <time>1970-01-01T00:00:00+00:00</time>
        <ele>2358.0</ele>
      </trkpt>
      <trkpt lat="45.814522" lon="7.660719">
        <time>1970-01-01T00:00:00+00:00</time>
        <ele>2361.0</ele>
      </trkpt>
      <trkpt lat="45.814647" lon="7.66065">
        <time>1970-01-01T00:00:00+00:00</time>
        <ele>2364.0</ele>
      </trkpt>
      <trkpt lat="45.814786" lon="7.660517">
        <time>1970-01-01T00:00:00+00:00</time>
        <ele>2372.0</ele>
      </trkpt>
      <trkpt lat="45.814835" lon="7.660507">
        <time>1970-01-01T00:00:00+00:00</time>
        <ele>2373.0</ele>
      </trkpt>
      <trkpt lat="45.814836" lon="7.660435">
        <time>1970-01-01T00:00:00+00:00</time>
        <ele>2376.0</ele>
      </trkpt>
      <trkpt lat="45.814783" lon="7.660408">
        <time>1970-01-01T00:00:00+00:00</time>
        <ele>2376.0</ele>
      </trkpt>
      <trkpt lat="45.814833" lon="7.660349">
        <time>1970-01-01T00:00:00+00:00</time>
        <ele>2380.0</ele>
      </trkpt>
      <trkpt lat="45.814848" lon="7.660297">
        <time>1970-01-01T00:00:00+00:00</time>
        <ele>2382.0</ele>
      </trkpt>
      <trkpt lat="45.814835" lon="7.660216">
        <time>1970-01-01T00:00:00+00:00</time>
        <ele>2385.0</ele>
      </trkpt>
      <trkpt lat="45.814847" lon="7.660157">
        <time>1970-01-01T00:00:00+00:00</time>
        <ele>2388.0</ele>
      </trkpt>
      <trkpt lat="45.814898" lon="7.660147">
        <time>1970-01-01T00:00:00+00:00</time>
        <ele>2390.0</ele>
      </trkpt>
      <trkpt lat="45.814921" lon="7.660112">
        <time>1970-01-01T00:00:00+00:00</time>
        <ele>2392.0</ele>
      </trkpt>
      <trkpt lat="45.814988" lon="7.660127">
        <time>1970-01-01T00:00:00+00:00</time>
        <ele>2393.0</ele>
      </trkpt>
      <trkpt lat="45.815041" lon="7.660075">
        <time>1970-01-01T00:00:00+00:00</time>
        <ele>2396.0</ele>
      </trkpt>
      <trkpt lat="45.815127" lon="7.660164">
        <time>1970-01-01T00:00:00+00:00</time>
        <ele>2395.0</ele>
      </trkpt>
      <trkpt lat="45.815278" lon="7.660273">
        <time>1970-01-01T00:00:00+00:00</time>
        <ele>2395.0</ele>
      </trkpt>
      <trkpt lat="45.815615" lon="7.660347">
        <time>1970-01-01T00:00:00+00:00</time>
        <ele>2401.0</ele>
      </trkpt>
      <trkpt lat="45.815763" lon="7.660534">
        <time>1970-01-01T00:00:00+00:00</time>
        <ele>2397.0</ele>
      </trkpt>
      <trkpt lat="45.815792" lon="7.660532">
        <time>1970-01-01T00:00:00+00:00</time>
        <ele>2398.0</ele>
      </trkpt>
      <trkpt lat="45.815888" lon="7.660628">
        <time>1970-01-01T00:00:00+00:00</time>
        <ele>2399.0</ele>
      </trkpt>
      <trkpt lat="45.815965" lon="7.660665">
        <time>1970-01-01T00:00:00+00:00</time>
        <ele>2401.0</ele>
      </trkpt>
      <trkpt lat="45.816015" lon="7.66063">
        <time>1970-01-01T00:00:00+00:00</time>
        <ele>2405.0</ele>
      </trkpt>
      <trkpt lat="45.816094" lon="7.660684">
        <time>1970-01-01T00:00:00+00:00</time>
        <ele>2406.0</ele>
      </trkpt>
      <trkpt lat="45.816127" lon="7.660719">
        <time>1970-01-01T00:00:00+00:00</time>
        <ele>2406.0</ele>
      </trkpt>
      <trkpt lat="45.816196" lon="7.660931">
        <time>1970-01-01T00:00:00+00:00</time>
        <ele>2404.0</ele>
      </trkpt>
      <trkpt lat="45.816395" lon="7.661109">
        <time>1970-01-01T00:00:00+00:00</time>
        <ele>2410.0</ele>
      </trkpt>
      <trkpt lat="45.81657" lon="7.661185">
        <time>1970-01-01T00:00:00+00:00</time>
        <ele>2416.0</ele>
      </trkpt>
      <trkpt lat="45.816608" lon="7.661104">
        <time>1970-01-01T00:00:00+00:00</time>
        <ele>2421.0</ele>
      </trkpt>
      <trkpt lat="45.81667" lon="7.661136">
        <time>1970-01-01T00:00:00+00:00</time>
        <ele>2422.0</ele>
      </trkpt>
      <trkpt lat="45.816773" lon="7.661237">
        <time>1970-01-01T00:00:00+00:00</time>
        <ele>2422.0</ele>
      </trkpt>
      <trkpt lat="45.816933" lon="7.661328">
        <time>1970-01-01T00:00:00+00:00</time>
        <ele>2425.0</ele>
      </trkpt>
      <trkpt lat="45.816993" lon="7.661392">
        <time>1970-01-01T00:00:00+00:00</time>
        <ele>2425.0</ele>
      </trkpt>
      <trkpt lat="45.817086" lon="7.661409">
        <time>1970-01-01T00:00:00+00:00</time>
        <ele>2429.0</ele>
      </trkpt>
      <trkpt lat="45.817222" lon="7.661395">
        <time>1970-01-01T00:00:00+00:00</time>
        <ele>2434.0</ele>
      </trkpt>
      <trkpt lat="45.817294" lon="7.66136">
        <time>1970-01-01T00:00:00+00:00</time>
        <ele>2438.0</ele>
      </trkpt>
      <trkpt lat="45.81733" lon="7.661269">
        <time>1970-01-01T00:00:00+00:00</time>
        <ele>2442.0</ele>
      </trkpt>
      <trkpt lat="45.817411" lon="7.661269">
        <time>1970-01-01T00:00:00+00:00</time>
        <ele>2444.0</ele>
      </trkpt>
      <trkpt lat="45.817442" lon="7.661202">
        <time>1970-01-01T00:00:00+00:00</time>
        <ele>2448.0</ele>
      </trkpt>
      <trkpt lat="45.817464" lon="7.660968">
        <time>1970-01-01T00:00:00+00:00</time>
        <ele>2456.0</ele>
      </trkpt>
      <trkpt lat="45.817491" lon="7.660896">
        <time>1970-01-01T00:00:00+00:00</time>
        <ele>2458.0</ele>
      </trkpt>
      <trkpt lat="45.817646" lon="7.660968">
        <time>1970-01-01T00:00:00+00:00</time>
        <ele>2459.0</ele>
      </trkpt>
      <trkpt lat="45.817784" lon="7.660894">
        <time>1970-01-01T00:00:00+00:00</time>
        <ele>2463.0</ele>
      </trkpt>
      <trkpt lat="45.817833" lon="7.660946">
        <time>1970-01-01T00:00:00+00:00</time>
        <ele>2463.0</ele>
      </trkpt>
      <trkpt lat="45.81788" lon="7.660832">
        <time>1970-01-01T00:00:00+00:00</time>
        <ele>2466.0</ele>
      </trkpt>
      <trkpt lat="45.817923" lon="7.660827">
        <time>1970-01-01T00:00:00+00:00</time>
        <ele>2467.0</ele>
      </trkpt>
      <trkpt lat="45.818028" lon="7.660933">
        <time>1970-01-01T00:00:00+00:00</time>
        <ele>2467.0</ele>
      </trkpt>
      <trkpt lat="45.818198" lon="7.660909">
        <time>1970-01-01T00:00:00+00:00</time>
        <ele>2472.0</ele>
      </trkpt>
      <trkpt lat="45.818569" lon="7.66099">
        <time>1970-01-01T00:00:00+00:00</time>
        <ele>2480.0</ele>
      </trkpt>
      <trkpt lat="45.818796" lon="7.660877">
        <time>1970-01-01T00:00:00+00:00</time>
        <ele>2490.0</ele>
      </trkpt>
      <trkpt lat="45.818923" lon="7.660593">
        <time>1970-01-01T00:00:00+00:00</time>
        <ele>2503.0</ele>
      </trkpt>
      <trkpt lat="45.818882" lon="7.660551">
        <time>1970-01-01T00:00:00+00:00</time>
        <ele>2503.0</ele>
      </trkpt>
      <trkpt lat="45.818954" lon="7.660379">
        <time>1970-01-01T00:00:00+00:00</time>
        <ele>2510.0</ele>
      </trkpt>
      <trkpt lat="45.819012" lon="7.660403">
        <time>1970-01-01T00:00:00+00:00</time>
        <ele>2511.0</ele>
      </trkpt>
      <trkpt lat="45.819126" lon="7.660349">
        <time>1970-01-01T00:00:00+00:00</time>
        <ele>2516.0</ele>
      </trkpt>
      <trkpt lat="45.819139" lon="7.660275">
        <time>1970-01-01T00:00:00+00:00</time>
        <ele>2519.0</ele>
      </trkpt>
      <trkpt lat="45.819249" lon="7.660098">
        <time>1970-01-01T00:00:00+00:00</time>
        <ele>2529.0</ele>
      </trkpt>
      <trkpt lat="45.819256" lon="7.660006">
        <time>1970-01-01T00:00:00+00:00</time>
        <ele>2532.0</ele>
      </trkpt>
      <trkpt lat="45.819308" lon="7.659964">
        <time>1970-01-01T00:00:00+00:00</time>
        <ele>2535.0</ele>
      </trkpt>
      <trkpt lat="45.819361" lon="7.659977">
        <time>1970-01-01T00:00:00+00:00</time>
        <ele>2536.0</ele>
      </trkpt>
      <trkpt lat="45.819428" lon="7.660056">
        <time>1970-01-01T00:00:00+00:00</time>
        <ele>2536.0</ele>
      </trkpt>
      <trkpt lat="45.819488" lon="7.660051">
        <time>1970-01-01T00:00:00+00:00</time>
        <ele>2539.0</ele>
      </trkpt>
      <trkpt lat="45.819578" lon="7.659846">
        <time>1970-01-01T00:00:00+00:00</time>
        <ele>2549.0</ele>
      </trkpt>
      <trkpt lat="45.819616" lon="7.659701">
        <time>1970-01-01T00:00:00+00:00</time>
        <ele>2557.0</ele>
      </trkpt>
      <trkpt lat="45.819648" lon="7.659649">
        <time>1970-01-01T00:00:00+00:00</time>
        <ele>2561.0</ele>
      </trkpt>
      <trkpt lat="45.819684" lon="7.659673">
        <time>1970-01-01T00:00:00+00:00</time>
        <ele>2561.0</ele>
      </trkpt>
      <trkpt lat="45.819738" lon="7.659378">
        <time>1970-01-01T00:00:00+00:00</time>
        <ele>2576.0</ele>
      </trkpt>
      <trkpt lat="45.819866" lon="7.659111">
        <time>1970-01-01T00:00:00+00:00</time>
        <ele>2586.0</ele>
      </trkpt>
      <trkpt lat="45.819892" lon="7.659082">
        <time>1970-01-01T00:00:00+00:00</time>
        <ele>2587.0</ele>
      </trkpt>
      <trkpt lat="45.819951" lon="7.659072">
        <time>1970-01-01T00:00:00+00:00</time>
        <ele>2589.0</ele>
      </trkpt>
      <trkpt lat="45.820028" lon="7.659015">
        <time>1970-01-01T00:00:00+00:00</time>
        <ele>2592.0</ele>
      </trkpt>
      <trkpt lat="45.820152" lon="7.658842">
        <time>1970-01-01T00:00:00+00:00</time>
        <ele>2601.0</ele>
      </trkpt>
      <trkpt lat="45.8202" lon="7.658719">
        <time>1970-01-01T00:00:00+00:00</time>
        <ele>2607.0</ele>
      </trkpt>
      <trkpt lat="45.820258" lon="7.658623">
        <time>1970-01-01T00:00:00+00:00</time>
        <ele>2612.0</ele>
      </trkpt>
      <trkpt lat="45.820299" lon="7.658416">
        <time>1970-01-01T00:00:00+00:00</time>
        <ele>2621.0</ele>
      </trkpt>
      <trkpt lat="45.820277" lon="7.658369">
        <time>1970-01-01T00:00:00+00:00</time>
        <ele>2622.0</ele>
      </trkpt>
      <trkpt lat="45.820341" lon="7.658258">
        <time>1970-01-01T00:00:00+00:00</time>
        <ele>2627.0</ele>
      </trkpt>
      <trkpt lat="45.820313" lon="7.658211">
        <time>1970-01-01T00:00:00+00:00</time>
        <ele>2627.0</ele>
      </trkpt>
      <trkpt lat="45.820241" lon="7.658192">
        <time>1970-01-01T00:00:00+00:00</time>
        <ele>2625.0</ele>
      </trkpt>
      <trkpt lat="45.820208" lon="7.658169">
        <time>1970-01-01T00:00:00+00:00</time>
        <ele>2624.0</ele>
      </trkpt>
      <trkpt lat="45.820186" lon="7.658083">
        <time>1970-01-01T00:00:00+00:00</time>
        <ele>2625.0</ele>
      </trkpt>
      <trkpt lat="45.820203" lon="7.658053">
        <time>1970-01-01T00:00:00+00:00</time>
        <ele>2626.0</ele>
      </trkpt>
      <trkpt lat="45.820105" lon="7.657814">
        <time>1970-01-01T00:00:00+00:00</time>
        <ele>2626.0</ele>
      </trkpt>
      <trkpt lat="45.820055" lon="7.65778">
        <time>1970-01-01T00:00:00+00:00</time>
        <ele>2625.0</ele>
      </trkpt>
      <trkpt lat="45.819959" lon="7.657666">
        <time>1970-01-01T00:00:00+00:00</time>
        <ele>2623.0</ele>
      </trkpt>
      <trkpt lat="45.819837" lon="7.657481">
        <time>1970-01-01T00:00:00+00:00</time>
        <ele>2621.0</ele>
      </trkpt>
      <trkpt lat="45.819695" lon="7.65725">
        <time>1970-01-01T00:00:00+00:00</time>
        <ele>2614.0</ele>
      </trkpt>
      <trkpt lat="45.819603" lon="7.657023">
        <time>1970-01-01T00:00:00+00:00</time>
        <ele>2609.0</ele>
      </trkpt>
      <trkpt lat="45.819571" lon="7.656981">
        <time>1970-01-01T00:00:00+00:00</time>
        <ele>2607.0</ele>
      </trkpt>
      <trkpt lat="45.819451" lon="7.656932">
        <time>1970-01-01T00:00:00+00:00</time>
        <ele>2607.0</ele>
      </trkpt>
      <trkpt lat="45.819402" lon="7.656889">
        <time>1970-01-01T00:00:00+00:00</time>
        <ele>2606.0</ele>
      </trkpt>
      <trkpt lat="45.81936" lon="7.656871">
        <time>1970-01-01T00:00:00+00:00</time>
        <ele>2606.0</ele>
      </trkpt>
      <trkpt lat="45.819304" lon="7.656793">
        <time>1970-01-01T00:00:00+00:00</time>
        <ele>2604.0</ele>
      </trkpt>
      <trkpt lat="45.819263" lon="7.656776">
        <time>1970-01-01T00:00:00+00:00</time>
        <ele>2605.0</ele>
      </trkpt>
      <trkpt lat="45.819065" lon="7.656823">
        <time>1970-01-01T00:00:00+00:00</time>
        <ele>2612.0</ele>
      </trkpt>
      <trkpt lat="45.818851" lon="7.656646">
        <time>1970-01-01T00:00:00+00:00</time>
        <ele>2616.0</ele>
      </trkpt>
      <trkpt lat="45.818637" lon="7.656514">
        <time>1970-01-01T00:00:00+00:00</time>
        <ele>2617.0</ele>
      </trkpt>
      <trkpt lat="45.818534" lon="7.656318">
        <time>1970-01-01T00:00:00+00:00</time>
        <ele>2617.0</ele>
      </trkpt>
      <trkpt lat="45.8185" lon="7.656295">
        <time>1970-01-01T00:00:00+00:00</time>
        <ele>2618.0</ele>
      </trkpt>
      <trkpt lat="45.818255" lon="7.655973">
        <time>1970-01-01T00:00:00+00:00</time>
        <ele>2629.0</ele>
      </trkpt>
      <trkpt lat="45.818131" lon="7.655879">
        <time>1970-01-01T00:00:00+00:00</time>
        <ele>2631.0</ele>
      </trkpt>
      <trkpt lat="45.817863" lon="7.655782">
        <time>1970-01-01T00:00:00+00:00</time>
        <ele>2644.0</ele>
      </trkpt>
      <trkpt lat="45.817647" lon="7.655813">
        <time>1970-01-01T00:00:00+00:00</time>
        <ele>2653.0</ele>
      </trkpt>
      <trkpt lat="45.817475" lon="7.655671">
        <time>1970-01-01T00:00:00+00:00</time>
        <ele>2657.0</ele>
      </trkpt>
      <trkpt lat="45.817418" lon="7.655665">
        <time>1970-01-01T00:00:00+00:00</time>
        <ele>2657.0</ele>
      </trkpt>
      <trkpt lat="45.817394" lon="7.655639">
        <time>1970-01-01T00:00:00+00:00</time>
        <ele>2657.0</ele>
      </trkpt>
      <trkpt lat="45.817372" lon="7.6556">
        <time>1970-01-01T00:00:00+00:00</time>
        <ele>2658.0</ele>
      </trkpt>
      <trkpt lat="45.817339" lon="7.655436">
        <time>1970-01-01T00:00:00+00:00</time>
        <ele>2657.0</ele>
      </trkpt>
      <trkpt lat="45.817256" lon="7.655497">
        <time>1970-01-01T00:00:00+00:00</time>
        <ele>2656.0</ele>
      </trkpt>
      <trkpt lat="45.817159" lon="7.655456">
        <time>1970-01-01T00:00:00+00:00</time>
        <ele>2652.0</ele>
      </trkpt>
      <trkpt lat="45.817167" lon="7.655197">
        <time>1970-01-01T00:00:00+00:00</time>
        <ele>2647.0</ele>
      </trkpt>
      <trkpt lat="45.817194" lon="7.655089">
        <time>1970-01-01T00:00:00+00:00</time>
        <ele>2645.0</ele>
      </trkpt>
      <trkpt lat="45.817207" lon="7.654943">
        <time>1970-01-01T00:00:00+00:00</time>
        <ele>2641.0</ele>
      </trkpt>
      <trkpt lat="45.817281" lon="7.654709">
        <time>1970-01-01T00:00:00+00:00</time>
        <ele>2637.0</ele>
      </trkpt>
      <trkpt lat="45.817271" lon="7.654567">
        <time>1970-01-01T00:00:00+00:00</time>
        <ele>2635.0</ele>
      </trkpt>
      <trkpt lat="45.817219" lon="7.654393">
        <time>1970-01-01T00:00:00+00:00</time>
        <ele>2630.0</ele>
      </trkpt>
      <trkpt lat="45.817224" lon="7.654259">
        <time>1970-01-01T00:00:00+00:00</time>
        <ele>2628.0</ele>
      </trkpt>
      <trkpt lat="45.817175" lon="7.654007">
        <time>1970-01-01T00:00:00+00:00</time>
        <ele>2625.0</ele>
      </trkpt>
      <trkpt lat="45.817097" lon="7.653718">
        <time>1970-01-01T00:00:00+00:00</time>
        <ele>2622.0</ele>
      </trkpt>
      <trkpt lat="45.817064" lon="7.65338">
        <time>1970-01-01T00:00:00+00:00</time>
        <ele>2620.0</ele>
      </trkpt>
      <trkpt lat="45.817072" lon="7.65333">
        <time>1970-01-01T00:00:00+00:00</time>
        <ele>2620.0</ele>
      </trkpt>
      <trkpt lat="45.81706" lon="7.653155">
        <time>1970-01-01T00:00:00+00:00</time>
        <ele>2619.0</ele>
      </trkpt>
      <trkpt lat="45.817085" lon="7.652899">
        <time>1970-01-01T00:00:00+00:00</time>
        <ele>2620.0</ele>
      </trkpt>
      <trkpt lat="45.817114" lon="7.652813">
        <time>1970-01-01T00:00:00+00:00</time>
        <ele>2623.0</ele>
      </trkpt>
      <trkpt lat="45.81718" lon="7.652707">
        <time>1970-01-01T00:00:00+00:00</time>
        <ele>2623.0</ele>
      </trkpt>
      <trkpt lat="45.817231" lon="7.65258">
        <time>1970-01-01T00:00:00+00:00</time>
        <ele>2624.0</ele>
      </trkpt>
      <trkpt lat="45.817174" lon="7.652355">
        <time>1970-01-01T00:00:00+00:00</time>
        <ele>2624.0</ele>
      </trkpt>
      <trkpt lat="45.817157" lon="7.652176">
        <time>1970-01-01T00:00:00+00:00</time>
        <ele>2624.0</ele>
      </trkpt>
      <trkpt lat="45.817147" lon="7.651637">
        <time>1970-01-01T00:00:00+00:00</time>
        <ele>2629.0</ele>
      </trkpt>
      <trkpt lat="45.817104" lon="7.651508">
        <time>1970-01-01T00:00:00+00:00</time>
        <ele>2629.0</ele>
      </trkpt>
      <trkpt lat="45.817127" lon="7.651106">
        <time>1970-01-01T00:00:00+00:00</time>
        <ele>2637.0</ele>
      </trkpt>
      <trkpt lat="45.817105" lon="7.650838">
        <time>1970-01-01T00:00:00+00:00</time>
        <ele>2641.0</ele>
      </trkpt>
      <trkpt lat="45.817055" lon="7.650586">
        <time>1970-01-01T00:00:00+00:00</time>
        <ele>2646.0</ele>
      </trkpt>
      <trkpt lat="45.817084" lon="7.650294">
        <time>1970-01-01T00:00:00+00:00</time>
        <ele>2656.0</ele>
      </trkpt>
      <trkpt lat="45.817065" lon="7.650206">
        <time>1970-01-01T00:00:00+00:00</time>
        <ele>2658.0</ele>
      </trkpt>
      <trkpt lat="45.816999" lon="7.650074">
        <time>1970-01-01T00:00:00+00:00</time>
        <ele>2662.0</ele>
      </trkpt>
      <trkpt lat="45.816982" lon="7.649997">
        <time>1970-01-01T00:00:00+00:00</time>
        <ele>2664.0</ele>
      </trkpt>
      <trkpt lat="45.816972" lon="7.64983">
        <time>1970-01-01T00:00:00+00:00</time>
        <ele>2670.0</ele>
      </trkpt>
      <trkpt lat="45.816985" lon="7.649734">
        <time>1970-01-01T00:00:00+00:00</time>
        <ele>2672.0</ele>
      </trkpt>
      <trkpt lat="45.816932" lon="7.649562">
        <time>1970-01-01T00:00:00+00:00</time>
        <ele>2677.0</ele>
      </trkpt>
      <trkpt lat="45.816927" lon="7.649488">
        <time>1970-01-01T00:00:00+00:00</time>
        <ele>2678.0</ele>
      </trkpt>
      <trkpt lat="45.81689" lon="7.649399">
        <time>1970-01-01T00:00:00+00:00</time>
        <ele>2679.0</ele>
      </trkpt>
      <trkpt lat="45.816905" lon="7.649162">
        <time>1970-01-01T00:00:00+00:00</time>
        <ele>2683.0</ele>
      </trkpt>
      <trkpt lat="45.816949" lon="7.649071">
        <time>1970-01-01T00:00:00+00:00</time>
        <ele>2685.0</ele>
      </trkpt>
      <trkpt lat="45.816902" lon="7.648863">
        <time>1970-01-01T00:00:00+00:00</time>
        <ele>2687.0</ele>
      </trkpt>
      <trkpt lat="45.816927" lon="7.648712">
        <time>1970-01-01T00:00:00+00:00</time>
        <ele>2691.0</ele>
      </trkpt>
      <trkpt lat="45.81688" lon="7.648506">
        <time>1970-01-01T00:00:00+00:00</time>
        <ele>2694.0</ele>
      </trkpt>
      <trkpt lat="45.816872" lon="7.648367">
        <time>1970-01-01T00:00:00+00:00</time>
        <ele>2697.0</ele>
      </trkpt>
      <trkpt lat="45.816827" lon="7.648178">
        <time>1970-01-01T00:00:00+00:00</time>
        <ele>2699.0</ele>
      </trkpt>
      <trkpt lat="45.816822" lon="7.648094">
        <time>1970-01-01T00:00:00+00:00</time>
        <ele>2700.0</ele>
      </trkpt>
      <trkpt lat="45.816847" lon="7.647776">
        <time>1970-01-01T00:00:00+00:00</time>
        <ele>2700.0</ele>
      </trkpt>
      <trkpt lat="45.816822" lon="7.647513">
        <time>1970-01-01T00:00:00+00:00</time>
        <ele>2698.0</ele>
      </trkpt>
      <trkpt lat="45.816767" lon="7.647235">
        <time>1970-01-01T00:00:00+00:00</time>
        <ele>2689.0</ele>
      </trkpt>
      <trkpt lat="45.816767" lon="7.647235">
        <time>1970-01-01T00:00:00+00:00</time>
        <ele>2689.0</ele>
      </trkpt>
      <trkpt lat="45.816822" lon="7.647513">
        <time>1970-01-01T00:00:00+00:00</time>
        <ele>2698.0</ele>
      </trkpt>
      <trkpt lat="45.816847" lon="7.647776">
        <time>1970-01-01T00:00:00+00:00</time>
        <ele>2700.0</ele>
      </trkpt>
      <trkpt lat="45.816822" lon="7.648094">
        <time>1970-01-01T00:00:00+00:00</time>
        <ele>2700.0</ele>
      </trkpt>
      <trkpt lat="45.816827" lon="7.648178">
        <time>1970-01-01T00:00:00+00:00</time>
        <ele>2699.0</ele>
      </trkpt>
      <trkpt lat="45.816872" lon="7.648367">
        <time>1970-01-01T00:00:00+00:00</time>
        <ele>2697.0</ele>
      </trkpt>
      <trkpt lat="45.81688" lon="7.648506">
        <time>1970-01-01T00:00:00+00:00</time>
        <ele>2694.0</ele>
      </trkpt>
      <trkpt lat="45.816927" lon="7.648712">
        <time>1970-01-01T00:00:00+00:00</time>
        <ele>2691.0</ele>
      </trkpt>
      <trkpt lat="45.816902" lon="7.648863">
        <time>1970-01-01T00:00:00+00:00</time>
        <ele>2687.0</ele>
      </trkpt>
      <trkpt lat="45.816949" lon="7.649071">
        <time>1970-01-01T00:00:00+00:00</time>
        <ele>2685.0</ele>
      </trkpt>
      <trkpt lat="45.816905" lon="7.649162">
        <time>1970-01-01T00:00:00+00:00</time>
        <ele>2683.0</ele>
      </trkpt>
      <trkpt lat="45.81689" lon="7.649399">
        <time>1970-01-01T00:00:00+00:00</time>
        <ele>2679.0</ele>
      </trkpt>
      <trkpt lat="45.816927" lon="7.649488">
        <time>1970-01-01T00:00:00+00:00</time>
        <ele>2678.0</ele>
      </trkpt>
      <trkpt lat="45.816932" lon="7.649562">
        <time>1970-01-01T00:00:00+00:00</time>
        <ele>2677.0</ele>
      </trkpt>
      <trkpt lat="45.816985" lon="7.649734">
        <time>1970-01-01T00:00:00+00:00</time>
        <ele>2672.0</ele>
      </trkpt>
      <trkpt lat="45.816972" lon="7.64983">
        <time>1970-01-01T00:00:00+00:00</time>
        <ele>2670.0</ele>
      </trkpt>
      <trkpt lat="45.816982" lon="7.649997">
        <time>1970-01-01T00:00:00+00:00</time>
        <ele>2664.0</ele>
      </trkpt>
      <trkpt lat="45.816999" lon="7.650074">
        <time>1970-01-01T00:00:00+00:00</time>
        <ele>2662.0</ele>
      </trkpt>
      <trkpt lat="45.817065" lon="7.650206">
        <time>1970-01-01T00:00:00+00:00</time>
        <ele>2658.0</ele>
      </trkpt>
      <trkpt lat="45.817084" lon="7.650294">
        <time>1970-01-01T00:00:00+00:00</time>
        <ele>2656.0</ele>
      </trkpt>
      <trkpt lat="45.817055" lon="7.650586">
        <time>1970-01-01T00:00:00+00:00</time>
        <ele>2646.0</ele>
      </trkpt>
      <trkpt lat="45.817105" lon="7.650838">
        <time>1970-01-01T00:00:00+00:00</time>
        <ele>2641.0</ele>
      </trkpt>
      <trkpt lat="45.817127" lon="7.651106">
        <time>1970-01-01T00:00:00+00:00</time>
        <ele>2637.0</ele>
      </trkpt>
      <trkpt lat="45.817104" lon="7.651508">
        <time>1970-01-01T00:00:00+00:00</time>
        <ele>2629.0</ele>
      </trkpt>
      <trkpt lat="45.817147" lon="7.651637">
        <time>1970-01-01T00:00:00+00:00</time>
        <ele>2629.0</ele>
      </trkpt>
      <trkpt lat="45.817157" lon="7.652176">
        <time>1970-01-01T00:00:00+00:00</time>
        <ele>2624.0</ele>
      </trkpt>
      <trkpt lat="45.817174" lon="7.652355">
        <time>1970-01-01T00:00:00+00:00</time>
        <ele>2624.0</ele>
      </trkpt>
      <trkpt lat="45.817231" lon="7.65258">
        <time>1970-01-01T00:00:00+00:00</time>
        <ele>2624.0</ele>
      </trkpt>
      <trkpt lat="45.81718" lon="7.652707">
        <time>1970-01-01T00:00:00+00:00</time>
        <ele>2623.0</ele>
      </trkpt>
      <trkpt lat="45.817114" lon="7.652813">
        <time>1970-01-01T00:00:00+00:00</time>
        <ele>2623.0</ele>
      </trkpt>
      <trkpt lat="45.817085" lon="7.652899">
        <time>1970-01-01T00:00:00+00:00</time>
        <ele>2620.0</ele>
      </trkpt>
      <trkpt lat="45.81706" lon="7.653155">
        <time>1970-01-01T00:00:00+00:00</time>
        <ele>2619.0</ele>
      </trkpt>
      <trkpt lat="45.817072" lon="7.65333">
        <time>1970-01-01T00:00:00+00:00</time>
        <ele>2620.0</ele>
      </trkpt>
      <trkpt lat="45.817064" lon="7.65338">
        <time>1970-01-01T00:00:00+00:00</time>
        <ele>2620.0</ele>
      </trkpt>
      <trkpt lat="45.817097" lon="7.653718">
        <time>1970-01-01T00:00:00+00:00</time>
        <ele>2622.0</ele>
      </trkpt>
      <trkpt lat="45.817175" lon="7.654007">
        <time>1970-01-01T00:00:00+00:00</time>
        <ele>2625.0</ele>
      </trkpt>
      <trkpt lat="45.817224" lon="7.654259">
        <time>1970-01-01T00:00:00+00:00</time>
        <ele>2628.0</ele>
      </trkpt>
      <trkpt lat="45.817219" lon="7.654393">
        <time>1970-01-01T00:00:00+00:00</time>
        <ele>2630.0</ele>
      </trkpt>
      <trkpt lat="45.817271" lon="7.654567">
        <time>1970-01-01T00:00:00+00:00</time>
        <ele>2635.0</ele>
      </trkpt>
      <trkpt lat="45.817281" lon="7.654709">
        <time>1970-01-01T00:00:00+00:00</time>
        <ele>2637.0</ele>
      </trkpt>
      <trkpt lat="45.817207" lon="7.654943">
        <time>1970-01-01T00:00:00+00:00</time>
        <ele>2641.0</ele>
      </trkpt>
      <trkpt lat="45.817194" lon="7.655089">
        <time>1970-01-01T00:00:00+00:00</time>
        <ele>2645.0</ele>
      </trkpt>
      <trkpt lat="45.817167" lon="7.655197">
        <time>1970-01-01T00:00:00+00:00</time>
        <ele>2647.0</ele>
      </trkpt>
      <trkpt lat="45.817159" lon="7.655456">
        <time>1970-01-01T00:00:00+00:00</time>
        <ele>2652.0</ele>
      </trkpt>
      <trkpt lat="45.817256" lon="7.655497">
        <time>1970-01-01T00:00:00+00:00</time>
        <ele>2656.0</ele>
      </trkpt>
      <trkpt lat="45.817339" lon="7.655436">
        <time>1970-01-01T00:00:00+00:00</time>
        <ele>2657.0</ele>
      </trkpt>
      <trkpt lat="45.817372" lon="7.6556">
        <time>1970-01-01T00:00:00+00:00</time>
        <ele>2658.0</ele>
      </trkpt>
      <trkpt lat="45.817394" lon="7.655639">
        <time>1970-01-01T00:00:00+00:00</time>
        <ele>2657.0</ele>
      </trkpt>
      <trkpt lat="45.817418" lon="7.655665">
        <time>1970-01-01T00:00:00+00:00</time>
        <ele>2657.0</ele>
      </trkpt>
      <trkpt lat="45.817475" lon="7.655671">
        <time>1970-01-01T00:00:00+00:00</time>
        <ele>2657.0</ele>
      </trkpt>
      <trkpt lat="45.817647" lon="7.655813">
        <time>1970-01-01T00:00:00+00:00</time>
        <ele>2653.0</ele>
      </trkpt>
      <trkpt lat="45.817863" lon="7.655782">
        <time>1970-01-01T00:00:00+00:00</time>
        <ele>2644.0</ele>
      </trkpt>
      <trkpt lat="45.818131" lon="7.655879">
        <time>1970-01-01T00:00:00+00:00</time>
        <ele>2631.0</ele>
      </trkpt>
      <trkpt lat="45.818255" lon="7.655973">
        <time>1970-01-01T00:00:00+00:00</time>
        <ele>2629.0</ele>
      </trkpt>
      <trkpt lat="45.8185" lon="7.656295">
        <time>1970-01-01T00:00:00+00:00</time>
        <ele>2618.0</ele>
      </trkpt>
      <trkpt lat="45.818534" lon="7.656318">
        <time>1970-01-01T00:00:00+00:00</time>
        <ele>2617.0</ele>
      </trkpt>
      <trkpt lat="45.818637" lon="7.656514">
        <time>1970-01-01T00:00:00+00:00</time>
        <ele>2617.0</ele>
      </trkpt>
      <trkpt lat="45.818851" lon="7.656646">
        <time>1970-01-01T00:00:00+00:00</time>
        <ele>2616.0</ele>
      </trkpt>
      <trkpt lat="45.819065" lon="7.656823">
        <time>1970-01-01T00:00:00+00:00</time>
        <ele>2612.0</ele>
      </trkpt>
      <trkpt lat="45.819263" lon="7.656776">
        <time>1970-01-01T00:00:00+00:00</time>
        <ele>2605.0</ele>
      </trkpt>
      <trkpt lat="45.819304" lon="7.656793">
        <time>1970-01-01T00:00:00+00:00</time>
        <ele>2604.0</ele>
      </trkpt>
      <trkpt lat="45.81936" lon="7.656871">
        <time>1970-01-01T00:00:00+00:00</time>
        <ele>2606.0</ele>
      </trkpt>
      <trkpt lat="45.819402" lon="7.656889">
        <time>1970-01-01T00:00:00+00:00</time>
        <ele>2606.0</ele>
      </trkpt>
      <trkpt lat="45.819784" lon="7.656986">
        <time>1970-01-01T00:00:00+00:00</time>
        <ele>2612.0</ele>
      </trkpt>
      <trkpt lat="45.819933" lon="7.657058">
        <time>1970-01-01T00:00:00+00:00</time>
        <ele>2616.0</ele>
      </trkpt>
      <trkpt lat="45.820026" lon="7.657042">
        <time>1970-01-01T00:00:00+00:00</time>
        <ele>2616.0</ele>
      </trkpt>
      <trkpt lat="45.820071" lon="7.657061">
        <time>1970-01-01T00:00:00+00:00</time>
        <ele>2617.0</ele>
      </trkpt>
      <trkpt lat="45.820181" lon="7.657171">
        <time>1970-01-01T00:00:00+00:00</time>
        <ele>2621.0</ele>
      </trkpt>
      <trkpt lat="45.820299" lon="7.657311">
        <time>1970-01-01T00:00:00+00:00</time>
        <ele>2624.0</ele>
      </trkpt>
      <trkpt lat="45.820485" lon="7.65738">
        <time>1970-01-01T00:00:00+00:00</time>
        <ele>2623.0</ele>
      </trkpt>
      <trkpt lat="45.820652" lon="7.657499">
        <time>1970-01-01T00:00:00+00:00</time>
        <ele>2620.0</ele>
      </trkpt>
      <trkpt lat="45.820678" lon="7.65753">
        <time>1970-01-01T00:00:00+00:00</time>
        <ele>2620.0</ele>
      </trkpt>
      <trkpt lat="45.820731" lon="7.657679">
        <time>1970-01-01T00:00:00+00:00</time>
        <ele>2622.0</ele>
      </trkpt>
      <trkpt lat="45.820886" lon="7.657951">
        <time>1970-01-01T00:00:00+00:00</time>
        <ele>2625.0</ele>
      </trkpt>
      <trkpt lat="45.821026" lon="7.658104">
        <time>1970-01-01T00:00:00+00:00</time>
        <ele>2626.0</ele>
      </trkpt>
      <trkpt lat="45.821155" lon="7.658119">
        <time>1970-01-01T00:00:00+00:00</time>
        <ele>2623.0</ele>
      </trkpt>
      <trkpt lat="45.821481" lon="7.658355">
        <time>1970-01-01T00:00:00+00:00</time>
        <ele>2621.0</ele>
      </trkpt>
      <trkpt lat="45.821571" lon="7.65835">
        <time>1970-01-01T00:00:00+00:00</time>
        <ele>2620.0</ele>
      </trkpt>
      <trkpt lat="45.821654" lon="7.658281">
        <time>1970-01-01T00:00:00+00:00</time>
        <ele>2618.0</ele>
      </trkpt>
      <trkpt lat="45.821706" lon="7.658358">
        <time>1970-01-01T00:00:00+00:00</time>
        <ele>2619.0</ele>
      </trkpt>
      <trkpt lat="45.82185" lon="7.658436">
        <time>1970-01-01T00:00:00+00:00</time>
        <ele>2619.0</ele>
      </trkpt>
      <trkpt lat="45.821927" lon="7.658506">
        <time>1970-01-01T00:00:00+00:00</time>
        <ele>2621.0</ele>
      </trkpt>
      <trkpt lat="45.821994" lon="7.65863">
        <time>1970-01-01T00:00:00+00:00</time>
        <ele>2624.0</ele>
      </trkpt>
      <trkpt lat="45.822033" lon="7.658651">
        <time>1970-01-01T00:00:00+00:00</time>
        <ele>2625.0</ele>
      </trkpt>
      <trkpt lat="45.822082" lon="7.658654">
        <time>1970-01-01T00:00:00+00:00</time>
        <ele>2626.0</ele>
      </trkpt>
      <trkpt lat="45.822115" lon="7.65863">
        <time>1970-01-01T00:00:00+00:00</time>
        <ele>2626.0</ele>
      </trkpt>
      <trkpt lat="45.822249" lon="7.658651">
        <time>1970-01-01T00:00:00+00:00</time>
        <ele>2629.0</ele>
      </trkpt>
      <trkpt lat="45.822385" lon="7.658728">
        <time>1970-01-01T00:00:00+00:00</time>
        <ele>2635.0</ele>
      </trkpt>
      <trkpt lat="45.822475" lon="7.658804">
        <time>1970-01-01T00:00:00+00:00</time>
        <ele>2638.0</ele>
      </trkpt>
      <trkpt lat="45.822579" lon="7.658794">
        <time>1970-01-01T00:00:00+00:00</time>
        <ele>2639.0</ele>
      </trkpt>
      <trkpt lat="45.822643" lon="7.658753">
        <time>1970-01-01T00:00:00+00:00</time>
        <ele>2639.0</ele>
      </trkpt>
      <trkpt lat="45.822795" lon="7.658749">
        <time>1970-01-01T00:00:00+00:00</time>
        <ele>2643.0</ele>
      </trkpt>
      <trkpt lat="45.82303" lon="7.658783">
        <time>1970-01-01T00:00:00+00:00</time>
        <ele>2650.0</ele>
      </trkpt>
      <trkpt lat="45.82313" lon="7.658839">
        <time>1970-01-01T00:00:00+00:00</time>
        <ele>2654.0</ele>
      </trkpt>
      <trkpt lat="45.823212" lon="7.658941">
        <time>1970-01-01T00:00:00+00:00</time>
        <ele>2658.0</ele>
      </trkpt>
      <trkpt lat="45.823611" lon="7.65926">
        <time>1970-01-01T00:00:00+00:00</time>
        <ele>2675.0</ele>
      </trkpt>
      <trkpt lat="45.823791" lon="7.65938">
        <time>1970-01-01T00:00:00+00:00</time>
        <ele>2679.0</ele>
      </trkpt>
      <trkpt lat="45.823832" lon="7.659383">
        <time>1970-01-01T00:00:00+00:00</time>
        <ele>2679.0</ele>
      </trkpt>
      <trkpt lat="45.823924" lon="7.65924">
        <time>1970-01-01T00:00:00+00:00</time>
        <ele>2678.0</ele>
      </trkpt>
      <trkpt lat="45.823972" lon="7.659222">
        <time>1970-01-01T00:00:00+00:00</time>
        <ele>2678.0</ele>
      </trkpt>
      <trkpt lat="45.824097" lon="7.659208">
        <time>1970-01-01T00:00:00+00:00</time>
        <ele>2680.0</ele>
      </trkpt>
      <trkpt lat="45.824181" lon="7.659227">
        <time>1970-01-01T00:00:00+00:00</time>
        <ele>2682.0</ele>
      </trkpt>
      <trkpt lat="45.824431" lon="7.659181">
        <time>1970-01-01T00:00:00+00:00</time>
        <ele>2689.0</ele>
      </trkpt>
      <trkpt lat="45.824837" lon="7.659287">
        <time>1970-01-01T00:00:00+00:00</time>
        <ele>2701.0</ele>
      </trkpt>
      <trkpt lat="45.825075" lon="7.659382">
        <time>1970-01-01T00:00:00+00:00</time>
        <ele>2705.0</ele>
      </trkpt>
      <trkpt lat="45.82522" lon="7.659369">
        <time>1970-01-01T00:00:00+00:00</time>
        <ele>2708.0</ele>
      </trkpt>
      <trkpt lat="45.825307" lon="7.659387">
        <time>1970-01-01T00:00:00+00:00</time>
        <ele>2710.0</ele>
      </trkpt>
      <trkpt lat="45.825382" lon="7.65933">
        <time>1970-01-01T00:00:00+00:00</time>
        <ele>2711.0</ele>
      </trkpt>
      <trkpt lat="45.825424" lon="7.659342">
        <time>1970-01-01T00:00:00+00:00</time>
        <ele>2712.0</ele>
      </trkpt>
      <trkpt lat="45.825589" lon="7.659316">
        <time>1970-01-01T00:00:00+00:00</time>
        <ele>2713.0</ele>
      </trkpt>
      <trkpt lat="45.825652" lon="7.65934">
        <time>1970-01-01T00:00:00+00:00</time>
        <ele>2714.0</ele>
      </trkpt>
      <trkpt lat="45.825699" lon="7.659372">
        <time>1970-01-01T00:00:00+00:00</time>
        <ele>2714.0</ele>
      </trkpt>
      <trkpt lat="45.825819" lon="7.659557">
        <time>1970-01-01T00:00:00+00:00</time>
        <ele>2716.0</ele>
      </trkpt>
      <trkpt lat="45.825885" lon="7.659789">
        <time>1970-01-01T00:00:00+00:00</time>
        <ele>2716.0</ele>
      </trkpt>
      <trkpt lat="45.825999" lon="7.659972">
        <time>1970-01-01T00:00:00+00:00</time>
        <ele>2717.0</ele>
      </trkpt>
      <trkpt lat="45.826101" lon="7.660063">
        <time>1970-01-01T00:00:00+00:00</time>
        <ele>2717.0</ele>
      </trkpt>
      <trkpt lat="45.826155" lon="7.660138">
        <time>1970-01-01T00:00:00+00:00</time>
        <ele>2717.0</ele>
      </trkpt>
      <trkpt lat="45.826268" lon="7.660162">
        <time>1970-01-01T00:00:00+00:00</time>
        <ele>2714.0</ele>
      </trkpt>
      <trkpt lat="45.826314" lon="7.660275">
        <time>1970-01-01T00:00:00+00:00</time>
        <ele>2712.0</ele>
      </trkpt>
      <trkpt lat="45.82643" lon="7.660433">
        <time>1970-01-01T00:00:00+00:00</time>
        <ele>2709.0</ele>
      </trkpt>
      <trkpt lat="45.826601" lon="7.660568">
        <time>1970-01-01T00:00:00+00:00</time>
        <ele>2708.0</ele>
      </trkpt>
      <trkpt lat="45.826944" lon="7.661014">
        <time>1970-01-01T00:00:00+00:00</time>
        <ele>2707.0</ele>
      </trkpt>
      <trkpt lat="45.827322" lon="7.661397">
        <time>1970-01-01T00:00:00+00:00</time>
        <ele>2713.0</ele>
      </trkpt>
      <trkpt lat="45.827455" lon="7.661755">
        <time>1970-01-01T00:00:00+00:00</time>
        <ele>2716.0</ele>
      </trkpt>
      <trkpt lat="45.827572" lon="7.661973">
        <time>1970-01-01T00:00:00+00:00</time>
        <ele>2711.0</ele>
      </trkpt>
      <trkpt lat="45.827785" lon="7.662114">
        <time>1970-01-01T00:00:00+00:00</time>
        <ele>2706.0</ele>
      </trkpt>
      <trkpt lat="45.828033" lon="7.662087">
        <time>1970-01-01T00:00:00+00:00</time>
        <ele>2697.0</ele>
      </trkpt>
      <trkpt lat="45.828291" lon="7.662188">
        <time>1970-01-01T00:00:00+00:00</time>
        <ele>2691.0</ele>
      </trkpt>
      <trkpt lat="45.828437" lon="7.662135">
        <time>1970-01-01T00:00:00+00:00</time>
        <ele>2687.0</ele>
      </trkpt>
      <trkpt lat="45.828453" lon="7.662113">
        <time>1970-01-01T00:00:00+00:00</time>
        <ele>2687.0</ele>
      </trkpt>
      <trkpt lat="45.828528" lon="7.662152">
        <time>1970-01-01T00:00:00+00:00</time>
        <ele>2688.0</ele>
      </trkpt>
      <trkpt lat="45.828423" lon="7.662414">
        <time>1970-01-01T00:00:00+00:00</time>
        <ele>2692.0</ele>
      </trkpt>
      <trkpt lat="45.828404" lon="7.662497">
        <time>1970-01-01T00:00:00+00:00</time>
        <ele>2693.0</ele>
      </trkpt>
      <trkpt lat="45.828425" lon="7.662677">
        <time>1970-01-01T00:00:00+00:00</time>
        <ele>2694.0</ele>
      </trkpt>
      <trkpt lat="45.828466" lon="7.662809">
        <time>1970-01-01T00:00:00+00:00</time>
        <ele>2694.0</ele>
      </trkpt>
      <trkpt lat="45.828495" lon="7.663152">
        <time>1970-01-01T00:00:00+00:00</time>
        <ele>2685.0</ele>
      </trkpt>
      <trkpt lat="45.828551" lon="7.663289">
        <time>1970-01-01T00:00:00+00:00</time>
        <ele>2679.0</ele>
      </trkpt>
      <trkpt lat="45.828565" lon="7.663385">
        <time>1970-01-01T00:00:00+00:00</time>
        <ele>2675.0</ele>
      </trkpt>
      <trkpt lat="45.82855" lon="7.66354">
        <time>1970-01-01T00:00:00+00:00</time>
        <ele>2670.0</ele>
      </trkpt>
      <trkpt lat="45.828584" lon="7.663656">
        <time>1970-01-01T00:00:00+00:00</time>
        <ele>2665.0</ele>
      </trkpt>
      <trkpt lat="45.828593" lon="7.663842">
        <time>1970-01-01T00:00:00+00:00</time>
        <ele>2662.0</ele>
      </trkpt>
      <trkpt lat="45.82884" lon="7.663837">
        <time>1970-01-01T00:00:00+00:00</time>
        <ele>2656.0</ele>
      </trkpt>
      <trkpt lat="45.829031" lon="7.663965">
        <time>1970-01-01T00:00:00+00:00</time>
        <ele>2647.0</ele>
      </trkpt>
      <trkpt lat="45.829212" lon="7.663904">
        <time>1970-01-01T00:00:00+00:00</time>
        <ele>2646.0</ele>
      </trkpt>
      <trkpt lat="45.829261" lon="7.663904">
        <time>1970-01-01T00:00:00+00:00</time>
        <ele>2645.0</ele>
      </trkpt>
      <trkpt lat="45.829269" lon="7.663928">
        <time>1970-01-01T00:00:00+00:00</time>
        <ele>2644.0</ele>
      </trkpt>
      <trkpt lat="45.829257" lon="7.66405">
        <time>1970-01-01T00:00:00+00:00</time>
        <ele>2639.0</ele>
      </trkpt>
      <trkpt lat="45.829137" lon="7.664442">
        <time>1970-01-01T00:00:00+00:00</time>
        <ele>2626.0</ele>
      </trkpt>
      <trkpt lat="45.829075" lon="7.664595">
        <time>1970-01-01T00:00:00+00:00</time>
        <ele>2624.0</ele>
      </trkpt>
      <trkpt lat="45.82905" lon="7.664855">
        <time>1970-01-01T00:00:00+00:00</time>
        <ele>2615.0</ele>
      </trkpt>
      <trkpt lat="45.829001" lon="7.665102">
        <time>1970-01-01T00:00:00+00:00</time>
        <ele>2607.0</ele>
      </trkpt>
      <trkpt lat="45.828984" lon="7.665549">
        <time>1970-01-01T00:00:00+00:00</time>
        <ele>2592.0</ele>
      </trkpt>
      <trkpt lat="45.829007" lon="7.665949">
        <time>1970-01-01T00:00:00+00:00</time>
        <ele>2578.0</ele>
      </trkpt>
      <trkpt lat="45.829052" lon="7.666041">
        <time>1970-01-01T00:00:00+00:00</time>
        <ele>2574.0</ele>
      </trkpt>
      <trkpt lat="45.829056" lon="7.666087">
        <time>1970-01-01T00:00:00+00:00</time>
        <ele>2573.0</ele>
      </trkpt>
      <trkpt lat="45.829122" lon="7.666148">
        <time>1970-01-01T00:00:00+00:00</time>
        <ele>2569.0</ele>
      </trkpt>
      <trkpt lat="45.82915" lon="7.666206">
        <time>1970-01-01T00:00:00+00:00</time>
        <ele>2567.0</ele>
      </trkpt>
      <trkpt lat="45.829137" lon="7.666521">
        <time>1970-01-01T00:00:00+00:00</time>
        <ele>2559.0</ele>
      </trkpt>
      <trkpt lat="45.829116" lon="7.666653">
        <time>1970-01-01T00:00:00+00:00</time>
        <ele>2553.0</ele>
      </trkpt>
      <trkpt lat="45.829063" lon="7.666873">
        <time>1970-01-01T00:00:00+00:00</time>
        <ele>2543.0</ele>
      </trkpt>
      <trkpt lat="45.82902" lon="7.666968">
        <time>1970-01-01T00:00:00+00:00</time>
        <ele>2540.0</ele>
      </trkpt>
      <trkpt lat="45.829018" lon="7.667393">
        <time>1970-01-01T00:00:00+00:00</time>
        <ele>2534.0</ele>
      </trkpt>
      <trkpt lat="45.829035" lon="7.667445">
        <time>1970-01-01T00:00:00+00:00</time>
        <ele>2533.0</ele>
      </trkpt>
      <trkpt lat="45.829135" lon="7.66753">
        <time>1970-01-01T00:00:00+00:00</time>
        <ele>2533.0</ele>
      </trkpt>
      <trkpt lat="45.829165" lon="7.667588">
        <time>1970-01-01T00:00:00+00:00</time>
        <ele>2531.0</ele>
      </trkpt>
      <trkpt lat="45.829165" lon="7.667888">
        <time>1970-01-01T00:00:00+00:00</time>
        <ele>2520.0</ele>
      </trkpt>
      <trkpt lat="45.829233" lon="7.668001">
        <time>1970-01-01T00:00:00+00:00</time>
        <ele>2517.0</ele>
      </trkpt>
      <trkpt lat="45.829282" lon="7.668044">
        <time>1970-01-01T00:00:00+00:00</time>
        <ele>2517.0</ele>
      </trkpt>
      <trkpt lat="45.829374" lon="7.668264">
        <time>1970-01-01T00:00:00+00:00</time>
        <ele>2509.0</ele>
      </trkpt>
      <trkpt lat="45.829406" lon="7.668436">
        <time>1970-01-01T00:00:00+00:00</time>
        <ele>2500.0</ele>
      </trkpt>
      <trkpt lat="45.829491" lon="7.668564">
        <time>1970-01-01T00:00:00+00:00</time>
        <ele>2497.0</ele>
      </trkpt>
      <trkpt lat="45.829516" lon="7.668824">
        <time>1970-01-01T00:00:00+00:00</time>
        <ele>2485.0</ele>
      </trkpt>
      <trkpt lat="45.829551" lon="7.668919">
        <time>1970-01-01T00:00:00+00:00</time>
        <ele>2479.0</ele>
      </trkpt>
      <trkpt lat="45.829753" lon="7.669017">
        <time>1970-01-01T00:00:00+00:00</time>
        <ele>2479.0</ele>
      </trkpt>
      <trkpt lat="45.829751" lon="7.669093">
        <time>1970-01-01T00:00:00+00:00</time>
        <ele>2474.0</ele>
      </trkpt>
      <trkpt lat="45.829612" lon="7.669261">
        <time>1970-01-01T00:00:00+00:00</time>
        <ele>2457.0</ele>
      </trkpt>
      <trkpt lat="45.829544" lon="7.66927">
        <time>1970-01-01T00:00:00+00:00</time>
        <ele>2454.0</ele>
      </trkpt>
      <trkpt lat="45.829421" lon="7.669212">
        <time>1970-01-01T00:00:00+00:00</time>
        <ele>2454.0</ele>
      </trkpt>
      <trkpt lat="45.82928" lon="7.669234">
        <time>1970-01-01T00:00:00+00:00</time>
        <ele>2448.0</ele>
      </trkpt>
      <trkpt lat="45.829037" lon="7.669347">
        <time>1970-01-01T00:00:00+00:00</time>
        <ele>2434.0</ele>
      </trkpt>
      <trkpt lat="45.829071" lon="7.669494">
        <time>1970-01-01T00:00:00+00:00</time>
        <ele>2426.0</ele>
      </trkpt>
      <trkpt lat="45.829039" lon="7.669683">
        <time>1970-01-01T00:00:00+00:00</time>
        <ele>2416.0</ele>
      </trkpt>
      <trkpt lat="45.829048" lon="7.669732">
        <time>1970-01-01T00:00:00+00:00</time>
        <ele>2414.0</ele>
      </trkpt>
      <trkpt lat="45.82912" lon="7.669885">
        <time>1970-01-01T00:00:00+00:00</time>
        <ele>2410.0</ele>
      </trkpt>
      <trkpt lat="45.829099" lon="7.669974">
        <time>1970-01-01T00:00:00+00:00</time>
        <ele>2408.0</ele>
      </trkpt>
      <trkpt lat="45.82906" lon="7.670013">
        <time>1970-01-01T00:00:00+00:00</time>
        <ele>2406.0</ele>
      </trkpt>
      <trkpt lat="45.829022" lon="7.670133">
        <time>1970-01-01T00:00:00+00:00</time>
        <ele>2403.0</ele>
      </trkpt>
      <trkpt lat="45.829046" lon="7.670231">
        <time>1970-01-01T00:00:00+00:00</time>
        <ele>2401.0</ele>
      </trkpt>
      <trkpt lat="45.829124" lon="7.67038">
        <time>1970-01-01T00:00:00+00:00</time>
        <ele>2398.0</ele>
      </trkpt>
      <trkpt lat="45.829139" lon="7.67057">
        <time>1970-01-01T00:00:00+00:00</time>
        <ele>2394.0</ele>
      </trkpt>
      <trkpt lat="45.829216" lon="7.670646">
        <time>1970-01-01T00:00:00+00:00</time>
        <ele>2395.0</ele>
      </trkpt>
      <trkpt lat="45.829248" lon="7.67072">
        <time>1970-01-01T00:00:00+00:00</time>
        <ele>2395.0</ele>
      </trkpt>
      <trkpt lat="45.829252" lon="7.670864">
        <time>1970-01-01T00:00:00+00:00</time>
        <ele>2393.0</ele>
      </trkpt>
      <trkpt lat="45.829282" lon="7.670931">
        <time>1970-01-01T00:00:00+00:00</time>
        <ele>2393.0</ele>
      </trkpt>
      <trkpt lat="45.829335" lon="7.670971">
        <time>1970-01-01T00:00:00+00:00</time>
        <ele>2392.0</ele>
      </trkpt>
      <trkpt lat="45.829395" lon="7.671065">
        <time>1970-01-01T00:00:00+00:00</time>
        <ele>2389.0</ele>
      </trkpt>
      <trkpt lat="45.829448" lon="7.671221">
        <time>1970-01-01T00:00:00+00:00</time>
        <ele>2383.0</ele>
      </trkpt>
      <trkpt lat="45.829327" lon="7.671273">
        <time>1970-01-01T00:00:00+00:00</time>
        <ele>2377.0</ele>
      </trkpt>
      <trkpt lat="45.829167" lon="7.671393">
        <time>1970-01-01T00:00:00+00:00</time>
        <ele>2366.0</ele>
      </trkpt>
      <trkpt lat="45.82906" lon="7.671432">
        <time>1970-01-01T00:00:00+00:00</time>
        <ele>2361.0</ele>
      </trkpt>
      <trkpt lat="45.828864" lon="7.671429">
        <time>1970-01-01T00:00:00+00:00</time>
        <ele>2355.0</ele>
      </trkpt>
      <trkpt lat="45.828698" lon="7.671377">
        <time>1970-01-01T00:00:00+00:00</time>
        <ele>2350.0</ele>
      </trkpt>
      <trkpt lat="45.828477" lon="7.671451">
        <time>1970-01-01T00:00:00+00:00</time>
        <ele>2339.0</ele>
      </trkpt>
      <trkpt lat="45.828308" lon="7.671469">
        <time>1970-01-01T00:00:00+00:00</time>
        <ele>2331.0</ele>
      </trkpt>
      <trkpt lat="45.828221" lon="7.671451">
        <time>1970-01-01T00:00:00+00:00</time>
        <ele>2328.0</ele>
      </trkpt>
      <trkpt lat="45.828166" lon="7.671417">
        <time>1970-01-01T00:00:00+00:00</time>
        <ele>2326.0</ele>
      </trkpt>
      <trkpt lat="45.828065" lon="7.671417">
        <time>1970-01-01T00:00:00+00:00</time>
        <ele>2322.0</ele>
      </trkpt>
      <trkpt lat="45.827997" lon="7.671393">
        <time>1970-01-01T00:00:00+00:00</time>
        <ele>2320.0</ele>
      </trkpt>
      <trkpt lat="45.827848" lon="7.671328">
        <time>1970-01-01T00:00:00+00:00</time>
        <ele>2318.0</ele>
      </trkpt>
      <trkpt lat="45.827626" lon="7.671191">
        <time>1970-01-01T00:00:00+00:00</time>
        <ele>2315.0</ele>
      </trkpt>
      <trkpt lat="45.827115" lon="7.671163">
        <time>1970-01-01T00:00:00+00:00</time>
        <ele>2301.0</ele>
      </trkpt>
      <trkpt lat="45.82693" lon="7.671117">
        <time>1970-01-01T00:00:00+00:00</time>
        <ele>2296.0</ele>
      </trkpt>
      <trkpt lat="45.826864" lon="7.671139">
        <time>1970-01-01T00:00:00+00:00</time>
        <ele>2293.0</ele>
      </trkpt>
      <trkpt lat="45.826736" lon="7.671105">
        <time>1970-01-01T00:00:00+00:00</time>
        <ele>2291.0</ele>
      </trkpt>
      <trkpt lat="45.826555" lon="7.671203">
        <time>1970-01-01T00:00:00+00:00</time>
        <ele>2284.0</ele>
      </trkpt>
      <trkpt lat="45.826446" lon="7.671163">
        <time>1970-01-01T00:00:00+00:00</time>
        <ele>2281.0</ele>
      </trkpt>
      <trkpt lat="45.826148" lon="7.671111">
        <time>1970-01-01T00:00:00+00:00</time>
        <ele>2271.0</ele>
      </trkpt>
      <trkpt lat="45.826084" lon="7.671081">
        <time>1970-01-01T00:00:00+00:00</time>
        <ele>2270.0</ele>
      </trkpt>
      <trkpt lat="45.826005" lon="7.670995">
        <time>1970-01-01T00:00:00+00:00</time>
        <ele>2269.0</ele>
      </trkpt>
      <trkpt lat="45.825945" lon="7.671004">
        <time>1970-01-01T00:00:00+00:00</time>
        <ele>2268.0</ele>
      </trkpt>
      <trkpt lat="45.825749" lon="7.67112">
        <time>1970-01-01T00:00:00+00:00</time>
        <ele>2260.0</ele>
      </trkpt>
      <trkpt lat="45.82564" lon="7.671142">
        <time>1970-01-01T00:00:00+00:00</time>
        <ele>2256.0</ele>
      </trkpt>
      <trkpt lat="45.825619" lon="7.671197">
        <time>1970-01-01T00:00:00+00:00</time>
        <ele>2254.0</ele>
      </trkpt>
      <trkpt lat="45.825557" lon="7.671227">
        <time>1970-01-01T00:00:00+00:00</time>
        <ele>2251.0</ele>
      </trkpt>
      <trkpt lat="45.825451" lon="7.67124">
        <time>1970-01-01T00:00:00+00:00</time>
        <ele>2247.0</ele>
      </trkpt>
      <trkpt lat="45.825406" lon="7.671264">
        <time>1970-01-01T00:00:00+00:00</time>
        <ele>2245.0</ele>
      </trkpt>
      <trkpt lat="45.825421" lon="7.671429">
        <time>1970-01-01T00:00:00+00:00</time>
        <ele>2240.0</ele>
      </trkpt>
      <trkpt lat="45.825336" lon="7.671674">
        <time>1970-01-01T00:00:00+00:00</time>
        <ele>2232.0</ele>
      </trkpt>
      <trkpt lat="45.825172" lon="7.671983">
        <time>1970-01-01T00:00:00+00:00</time>
        <ele>2220.0</ele>
      </trkpt>
      <trkpt lat="45.825116" lon="7.672056">
        <time>1970-01-01T00:00:00+00:00</time>
        <ele>2216.0</ele>
      </trkpt>
      <trkpt lat="45.825091" lon="7.672154">
        <time>1970-01-01T00:00:00+00:00</time>
        <ele>2213.0</ele>
      </trkpt>
      <trkpt lat="45.824952" lon="7.67239">
        <time>1970-01-01T00:00:00+00:00</time>
        <ele>2202.0</ele>
      </trkpt>
      <trkpt lat="45.824854" lon="7.672656">
        <time>1970-01-01T00:00:00+00:00</time>
        <ele>2191.0</ele>
      </trkpt>
      <trkpt lat="45.82473" lon="7.672885">
        <time>1970-01-01T00:00:00+00:00</time>
        <ele>2180.0</ele>
      </trkpt>
      <trkpt lat="45.824707" lon="7.672919">
        <time>1970-01-01T00:00:00+00:00</time>
        <ele>2179.0</ele>
      </trkpt>
      <trkpt lat="45.824675" lon="7.672925">
        <time>1970-01-01T00:00:00+00:00</time>
        <ele>2177.0</ele>
      </trkpt>
      <trkpt lat="45.824583" lon="7.672851">
        <time>1970-01-01T00:00:00+00:00</time>
        <ele>2176.0</ele>
      </trkpt>
      <trkpt lat="45.824413" lon="7.673145">
        <time>1970-01-01T00:00:00+00:00</time>
        <ele>2165.0</ele>
      </trkpt>
      <trkpt lat="45.824353" lon="7.673175">
        <time>1970-01-01T00:00:00+00:00</time>
        <ele>2162.0</ele>
      </trkpt>
      <trkpt lat="45.824279" lon="7.673255">
        <time>1970-01-01T00:00:00+00:00</time>
        <ele>2159.0</ele>
      </trkpt>
      <trkpt lat="45.82421" lon="7.67327">
        <time>1970-01-01T00:00:00+00:00</time>
        <ele>2158.0</ele>
      </trkpt>
      <trkpt lat="45.82397" lon="7.673487">
        <time>1970-01-01T00:00:00+00:00</time>
        <ele>2150.0</ele>
      </trkpt>
      <trkpt lat="45.823891" lon="7.673536">
        <time>1970-01-01T00:00:00+00:00</time>
        <ele>2148.0</ele>
      </trkpt>
      <trkpt lat="45.823861" lon="7.673616">
        <time>1970-01-01T00:00:00+00:00</time>
        <ele>2146.0</ele>
      </trkpt>
      <trkpt lat="45.823624" lon="7.67376">
        <time>1970-01-01T00:00:00+00:00</time>
        <ele>2140.0</ele>
      </trkpt>
      <trkpt lat="45.823356" lon="7.673689">
        <time>1970-01-01T00:00:00+00:00</time>
        <ele>2135.0</ele>
      </trkpt>
      <trkpt lat="45.82329" lon="7.673646">
        <time>1970-01-01T00:00:00+00:00</time>
        <ele>2133.0</ele>
      </trkpt>
      <trkpt lat="45.82311" lon="7.673615">
        <time>1970-01-01T00:00:00+00:00</time>
        <ele>2129.0</ele>
      </trkpt>
      <trkpt lat="45.822917" lon="7.673628">
        <time>1970-01-01T00:00:00+00:00</time>
        <ele>2126.0</ele>
      </trkpt>
      <trkpt lat="45.822872" lon="7.673674">
        <time>1970-01-01T00:00:00+00:00</time>
        <ele>2124.0</ele>
      </trkpt>
      <trkpt lat="45.822369" lon="7.67387">
        <time>1970-01-01T00:00:00+00:00</time>
        <ele>2113.0</ele>
      </trkpt>
      <trkpt lat="45.822042" lon="7.674064">
        <time>1970-01-01T00:00:00+00:00</time>
        <ele>2111.0</ele>
      </trkpt>
      <trkpt lat="45.821965" lon="7.674115">
        <time>1970-01-01T00:00:00+00:00</time>
        <ele>2112.0</ele>
      </trkpt>
      <trkpt lat="45.821602" lon="7.674477">
        <time>1970-01-01T00:00:00+00:00</time>
        <ele>2108.0</ele>
      </trkpt>
      <trkpt lat="45.821422" lon="7.674631">
        <time>1970-01-01T00:00:00+00:00</time>
        <ele>2102.0</ele>
      </trkpt>
      <trkpt lat="45.821207" lon="7.674768">
        <time>1970-01-01T00:00:00+00:00</time>
        <ele>2094.0</ele>
      </trkpt>
      <trkpt lat="45.820866" lon="7.674896">
        <time>1970-01-01T00:00:00+00:00</time>
        <ele>2088.0</ele>
      </trkpt>
      <trkpt lat="45.820707" lon="7.67493">
        <time>1970-01-01T00:00:00+00:00</time>
        <ele>2086.0</ele>
      </trkpt>
      <trkpt lat="45.820509" lon="7.674906">
        <time>1970-01-01T00:00:00+00:00</time>
        <ele>2087.0</ele>
      </trkpt>
      <trkpt lat="45.820452" lon="7.674953">
        <time>1970-01-01T00:00:00+00:00</time>
        <ele>2086.0</ele>
      </trkpt>
      <trkpt lat="45.820419" lon="7.67502">
        <time>1970-01-01T00:00:00+00:00</time>
        <ele>2085.0</ele>
      </trkpt>
      <trkpt lat="45.820402" lon="7.675119">
        <time>1970-01-01T00:00:00+00:00</time>
        <ele>2083.0</ele>
      </trkpt>
      <trkpt lat="45.820352" lon="7.675221">
        <time>1970-01-01T00:00:00+00:00</time>
        <ele>2082.0</ele>
      </trkpt>
      <trkpt lat="45.819734" lon="7.676058">
        <time>1970-01-01T00:00:00+00:00</time>
        <ele>2067.0</ele>
      </trkpt>
      <trkpt lat="45.81944" lon="7.676419">
        <time>1970-01-01T00:00:00+00:00</time>
        <ele>2060.0</ele>
      </trkpt>
      <trkpt lat="45.81886" lon="7.677029">
        <time>1970-01-01T00:00:00+00:00</time>
        <ele>2050.0</ele>
      </trkpt>
      <trkpt lat="45.818753" lon="7.677202">
        <time>1970-01-01T00:00:00+00:00</time>
        <ele>2047.0</ele>
      </trkpt>
      <trkpt lat="45.81813" lon="7.677677">
        <time>1970-01-01T00:00:00+00:00</time>
        <ele>2027.0</ele>
      </trkpt>
      <trkpt lat="45.817721" lon="7.677789">
        <time>1970-01-01T00:00:00+00:00</time>
        <ele>2027.0</ele>
      </trkpt>
      <trkpt lat="45.817143" lon="7.678106">
        <time>1970-01-01T00:00:00+00:00</time>
        <ele>2010.0</ele>
      </trkpt>
      <trkpt lat="45.816563" lon="7.678295">
        <time>1970-01-01T00:00:00+00:00</time>
        <ele>1996.0</ele>
      </trkpt>
      <trkpt lat="45.816462" lon="7.678407">
        <time>1970-01-01T00:00:00+00:00</time>
        <ele>1992.0</ele>
      </trkpt>
      <trkpt lat="45.816394" lon="7.678441">
        <time>1970-01-01T00:00:00+00:00</time>
        <ele>1989.0</ele>
      </trkpt>
      <trkpt lat="45.816207" lon="7.678472">
        <time>1970-01-01T00:00:00+00:00</time>
        <ele>1981.0</ele>
      </trkpt>
      <trkpt lat="45.816133" lon="7.678504">
        <time>1970-01-01T00:00:00+00:00</time>
        <ele>1979.0</ele>
      </trkpt>
      <trkpt lat="45.815886" lon="7.678506">
        <time>1970-01-01T00:00:00+00:00</time>
        <ele>1974.0</ele>
      </trkpt>
      <trkpt lat="45.81559" lon="7.678339">
        <time>1970-01-01T00:00:00+00:00</time>
        <ele>1969.0</ele>
      </trkpt>
      <trkpt lat="45.815412" lon="7.678336">
        <time>1970-01-01T00:00:00+00:00</time>
        <ele>1966.0</ele>
      </trkpt>
      <trkpt lat="45.815239" lon="7.678287">
        <time>1970-01-01T00:00:00+00:00</time>
        <ele>1961.0</ele>
      </trkpt>
      <trkpt lat="45.815217" lon="7.678287">
        <time>1970-01-01T00:00:00+00:00</time>
        <ele>1960.0</ele>
      </trkpt>
      <trkpt lat="45.815195" lon="7.678292">
        <time>1970-01-01T00:00:00+00:00</time>
        <ele>1959.0</ele>
      </trkpt>
      <trkpt lat="45.815074" lon="7.678101">
        <time>1970-01-01T00:00:00+00:00</time>
        <ele>1958.0</ele>
      </trkpt>
      <trkpt lat="45.814897" lon="7.677922">
        <time>1970-01-01T00:00:00+00:00</time>
        <ele>1955.0</ele>
      </trkpt>
      <trkpt lat="45.814829" lon="7.677786">
        <time>1970-01-01T00:00:00+00:00</time>
        <ele>1953.0</ele>
      </trkpt>
      <trkpt lat="45.814808" lon="7.677601">
        <time>1970-01-01T00:00:00+00:00</time>
        <ele>1953.0</ele>
      </trkpt>
      <trkpt lat="45.814881" lon="7.677199">
        <time>1970-01-01T00:00:00+00:00</time>
        <ele>1958.0</ele>
      </trkpt>
      <trkpt lat="45.814887" lon="7.676955">
        <time>1970-01-01T00:00:00+00:00</time>
        <ele>1959.0</ele>
      </trkpt>
      <trkpt lat="45.81478" lon="7.676437">
        <time>1970-01-01T00:00:00+00:00</time>
        <ele>1961.0</ele>
      </trkpt>
      <trkpt lat="45.814735" lon="7.676284">
        <time>1970-01-01T00:00:00+00:00</time>
        <ele>1962.0</ele>
      </trkpt>
      <trkpt lat="45.814703" lon="7.676205">
        <time>1970-01-01T00:00:00+00:00</time>
        <ele>1962.0</ele>
      </trkpt>
      <trkpt lat="45.814485" lon="7.675946">
        <time>1970-01-01T00:00:00+00:00</time>
        <ele>1963.0</ele>
      </trkpt>
      <trkpt lat="45.814472" lon="7.675909">
        <time>1970-01-01T00:00:00+00:00</time>
        <ele>1964.0</ele>
      </trkpt>
      <trkpt lat="45.814471" lon="7.675771">
        <time>1970-01-01T00:00:00+00:00</time>
        <ele>1968.0</ele>
      </trkpt>
      <trkpt lat="45.814451" lon="7.675704">
        <time>1970-01-01T00:00:00+00:00</time>
        <ele>1969.0</ele>
      </trkpt>
      <trkpt lat="45.814413" lon="7.675658">
        <time>1970-01-01T00:00:00+00:00</time>
        <ele>1969.0</ele>
      </trkpt>
      <trkpt lat="45.814198" lon="7.675577">
        <time>1970-01-01T00:00:00+00:00</time>
        <ele>1965.0</ele>
      </trkpt>
      <trkpt lat="45.814125" lon="7.675496">
        <time>1970-01-01T00:00:00+00:00</time>
        <ele>1964.0</ele>
      </trkpt>
      <trkpt lat="45.814025" lon="7.675499">
        <time>1970-01-01T00:00:00+00:00</time>
        <ele>1960.0</ele>
      </trkpt>
      <trkpt lat="45.813952" lon="7.675465">
        <time>1970-01-01T00:00:00+00:00</time>
        <ele>1957.0</ele>
      </trkpt>
      <trkpt lat="45.813905" lon="7.675388">
        <time>1970-01-01T00:00:00+00:00</time>
        <ele>1958.0</ele>
      </trkpt>
      <trkpt lat="45.813692" lon="7.675217">
        <time>1970-01-01T00:00:00+00:00</time>
        <ele>1957.0</ele>
      </trkpt>
      <trkpt lat="45.81347" lon="7.674957">
        <time>1970-01-01T00:00:00+00:00</time>
        <ele>1948.0</ele>
      </trkpt>
      <trkpt lat="45.813389" lon="7.67491">
        <time>1970-01-01T00:00:00+00:00</time>
        <ele>1943.0</ele>
      </trkpt>
      <trkpt lat="45.813317" lon="7.674799">
        <time>1970-01-01T00:00:00+00:00</time>
        <ele>1941.0</ele>
      </trkpt>
      <trkpt lat="45.81321" lon="7.674475">
        <time>1970-01-01T00:00:00+00:00</time>
        <ele>1941.0</ele>
      </trkpt>
      <trkpt lat="45.813214" lon="7.674223">
        <time>1970-01-01T00:00:00+00:00</time>
        <ele>1944.0</ele>
      </trkpt>
      <trkpt lat="45.81318" lon="7.674052">
        <time>1970-01-01T00:00:00+00:00</time>
        <ele>1946.0</ele>
      </trkpt>
      <trkpt lat="45.813133" lon="7.673959">
        <time>1970-01-01T00:00:00+00:00</time>
        <ele>1946.0</ele>
      </trkpt>
      <trkpt lat="45.813061" lon="7.673878">
        <time>1970-01-01T00:00:00+00:00</time>
        <ele>1945.0</ele>
      </trkpt>
      <trkpt lat="45.812719" lon="7.673669">
        <time>1970-01-01T00:00:00+00:00</time>
        <ele>1946.0</ele>
      </trkpt>
      <trkpt lat="45.812604" lon="7.673626">
        <time>1970-01-01T00:00:00+00:00</time>
        <ele>1946.0</ele>
      </trkpt>
      <trkpt lat="45.812485" lon="7.673656">
        <time>1970-01-01T00:00:00+00:00</time>
        <ele>1946.0</ele>
      </trkpt>
      <trkpt lat="45.812344" lon="7.673797">
        <time>1970-01-01T00:00:00+00:00</time>
        <ele>1942.0</ele>
      </trkpt>
      <trkpt lat="45.812263" lon="7.673912">
        <time>1970-01-01T00:00:00+00:00</time>
        <ele>1940.0</ele>
      </trkpt>
      <trkpt lat="45.812216" lon="7.674087">
        <time>1970-01-01T00:00:00+00:00</time>
        <ele>1938.0</ele>
      </trkpt>
      <trkpt lat="45.812109" lon="7.674104">
        <time>1970-01-01T00:00:00+00:00</time>
        <ele>1937.0</ele>
      </trkpt>
      <trkpt lat="45.8119" lon="7.67424">
        <time>1970-01-01T00:00:00+00:00</time>
        <ele>1936.0</ele>
      </trkpt>
      <trkpt lat="45.811789" lon="7.674279">
        <time>1970-01-01T00:00:00+00:00</time>
        <ele>1935.0</ele>
      </trkpt>
      <trkpt lat="45.811495" lon="7.674304">
        <time>1970-01-01T00:00:00+00:00</time>
        <ele>1933.0</ele>
      </trkpt>
      <trkpt lat="45.811412" lon="7.674333">
        <time>1970-01-01T00:00:00+00:00</time>
        <ele>1931.0</ele>
      </trkpt>
      <trkpt lat="45.811705" lon="7.674766">
        <time>1970-01-01T00:00:00+00:00</time>
        <ele>1923.0</ele>
      </trkpt>
      <trkpt lat="45.811772" lon="7.674801">
        <time>1970-01-01T00:00:00+00:00</time>
        <ele>1922.0</ele>
      </trkpt>
    </trkseg>
  </trk>
</gpx>
